IGO128 VIDP-VICG

Flight info

Callsign IGO128
Flight time 0h 35m
Altitude 20000
Route SP7J SP M890 CHG
Aircraft A20N/M-SDE2E3FGHIRWXY/LB1

Departure

Time 2026-05-06 01:27
Airport Indira Gandhi International Airport (VIDP)

Arrival

Time 2026-05-06 02:03
Airport Shaheed Bhagat Singh International Airport (VICG)
Time Latitude Longitude Altitude Speed Heading
2026-05-06 01:06 28.56042 77.08129 750 ft 0 kts 63°
2026-05-06 01:15 28.56041 77.08128 750 ft 1 kts 63°
2026-05-06 01:15 28.56039 77.08123 750 ft 2 kts 63°
2026-05-06 01:15 28.56034 77.08112 746 ft 2 kts 63°
2026-05-06 01:15 28.56028 77.08098 747 ft 2 kts 63°
2026-05-06 01:16 28.56021 77.08084 747 ft 2 kts 63°
2026-05-06 01:16 28.56015 77.08070 746 ft 2 kts 46°
2026-05-06 01:16 28.56003 77.08060 747 ft 2 kts
2026-05-06 01:16 28.55990 77.08061 745 ft 0 kts 326°
2026-05-06 01:19 28.55998 77.08055 747 ft 4 kts 323°
2026-05-06 01:19 28.56020 77.08015 750 ft 8 kts 288°
2026-05-06 01:19 28.56038 77.07941 748 ft 12 kts 285°
2026-05-06 01:19 28.56102 77.07899 747 ft 12 kts
2026-05-06 01:20 28.56197 77.07924 750 ft 16 kts 14°
2026-05-06 01:20 28.56314 77.07958 746 ft 19 kts 14°
2026-05-06 01:20 28.56441 77.08000 747 ft 19 kts 30°
2026-05-06 01:20 28.56520 77.08126 749 ft 21 kts 62°
2026-05-06 01:21 28.56592 77.08281 746 ft 23 kts 62°
2026-05-06 01:21 28.56672 77.08453 746 ft 26 kts 59°
2026-05-06 01:21 28.56807 77.08595 747 ft 27 kts 34°
2026-05-06 01:21 28.56904 77.08761 749 ft 26 kts 87°
2026-05-06 01:22 28.56901 77.08979 750 ft 28 kts 91°
2026-05-06 01:22 28.56895 77.09207 750 ft 30 kts 91°
2026-05-06 01:22 28.56890 77.09447 750 ft 31 kts 91°
2026-05-06 01:22 28.56886 77.09693 750 ft 32 kts 92°
2026-05-06 01:23 28.56878 77.09952 750 ft 33 kts 91°
2026-05-06 01:23 28.56873 77.10219 750 ft 34 kts 91°
2026-05-06 01:23 28.56866 77.10494 747 ft 35 kts 91°
2026-05-06 01:23 28.56861 77.10774 750 ft 36 kts 92°
2026-05-06 01:24 28.56854 77.11059 750 ft 36 kts 91°
2026-05-06 01:24 28.56848 77.11348 749 ft 37 kts 91°
2026-05-06 01:24 28.56843 77.11588 750 ft 9 kts 92°
2026-05-06 01:24 28.56870 77.11635 749 ft 0 kts 14°
2026-05-06 01:26 28.56882 77.11635 749 ft 8 kts 360°
2026-05-06 01:26 28.56964 77.11619 750 ft 15 kts 337°
2026-05-06 01:26 28.56999 77.11508 750 ft 19 kts 271°
2026-05-06 01:26 28.57006 77.11027 750 ft 108 kts 270°
2026-05-06 01:27 28.57030 77.09866 830 ft 176 kts 271°
2026-05-06 01:27 28.57067 77.08436 1639 ft 185 kts 273°
2026-05-06 01:27 28.57229 77.06963 2711 ft 187 kts 290°
2026-05-06 01:27 28.57932 77.05675 3616 ft 199 kts 311°
2026-05-06 01:28 28.58947 77.04492 4203 ft 218 kts 317°
2026-05-06 01:28 28.60103 77.03215 4774 ft 243 kts 315°
2026-05-06 01:28 28.61322 77.01765 5454 ft 263 kts 313°
2026-05-06 01:28 28.62655 77.00303 6417 ft 268 kts 327°
2026-05-06 01:29 28.64339 76.99461 7242 ft 271 kts 349°
2026-05-06 01:29 28.66212 76.99406 7681 ft 275 kts
2026-05-06 01:29 28.68127 76.99573 7888 ft 276 kts
2026-05-06 01:29 28.70043 76.99757 7978 ft 276 kts
2026-05-06 01:30 28.71960 76.99936 7986 ft 276 kts
2026-05-06 01:30 28.73874 77.00106 7986 ft 276 kts
2026-05-06 01:30 28.75786 77.00269 7988 ft 275 kts
2026-05-06 01:30 28.77700 77.00429 7990 ft 276 kts
2026-05-06 01:31 28.79607 77.00588 7978 ft 276 kts
2026-05-06 01:31 28.81523 77.00746 7979 ft 276 kts
2026-05-06 01:31 28.83439 77.00905 7984 ft 276 kts
2026-05-06 01:31 28.85352 77.01064 7975 ft 276 kts
2026-05-06 01:32 28.87268 77.01223 7976 ft 275 kts
2026-05-06 01:32 28.89145 77.01379 7975 ft 275 kts
2026-05-06 01:32 28.91061 77.01668 8025 ft 278 kts 12°
2026-05-06 01:32 28.92924 77.02333 8503 ft 282 kts 18°
2026-05-06 01:33 28.94776 77.03063 9589 ft 281 kts 17°
2026-05-06 01:33 28.96645 77.03785 10478 ft 290 kts 17°
2026-05-06 01:33 28.98642 77.04550 10918 ft 314 kts 17°
2026-05-06 01:33 29.00781 77.05371 11374 ft 334 kts 17°
2026-05-06 01:34 29.02997 77.06228 12265 ft 338 kts 17°
2026-05-06 01:34 29.05233 77.07098 13238 ft 341 kts 16°
2026-05-06 01:34 29.07496 77.07978 14106 ft 345 kts 16°
2026-05-06 01:34 29.09784 77.08868 14905 ft 350 kts 16°
2026-05-06 01:35 29.12109 77.09771 15717 ft 355 kts 16°
2026-05-06 01:35 29.14460 77.10685 16505 ft 360 kts 15°
2026-05-06 01:35 29.16845 77.11612 17295 ft 364 kts 15°
2026-05-06 01:35 29.19231 77.12539 18046 ft 369 kts 15°
2026-05-06 01:36 29.21676 77.13491 18722 ft 373 kts 15°
2026-05-06 01:36 29.24150 77.14453 19409 ft 378 kts 15°
2026-05-06 01:36 29.26650 77.15427 19783 ft 382 kts 15°
2026-05-06 01:36 29.29179 77.16413 19936 ft 383 kts 15°
2026-05-06 01:37 29.31698 77.17396 19974 ft 383 kts 15°
2026-05-06 01:37 29.34222 77.18381 19974 ft 383 kts 16°
2026-05-06 01:37 29.36745 77.19367 19975 ft 383 kts 16°
2026-05-06 01:37 29.39263 77.20350 19975 ft 383 kts 16°
2026-05-06 01:38 29.41792 77.21338 19973 ft 383 kts 16°
2026-05-06 01:38 29.44315 77.22324 19974 ft 383 kts 16°
2026-05-06 01:38 29.46839 77.23310 19973 ft 383 kts 16°
2026-05-06 01:38 29.49330 77.24284 19973 ft 383 kts 16°
2026-05-06 01:39 29.51851 77.25271 19975 ft 383 kts 16°
2026-05-06 01:39 29.54380 77.26261 19975 ft 383 kts 16°
2026-05-06 01:39 29.56913 77.27254 19974 ft 383 kts 16°
2026-05-06 01:39 29.59434 77.28242 19973 ft 383 kts 16°
2026-05-06 01:40 29.61964 77.29234 19972 ft 383 kts 16°
2026-05-06 01:40 29.64486 77.30223 19972 ft 383 kts 16°
2026-05-06 01:40 29.67012 77.31215 19971 ft 384 kts 16°
2026-05-06 01:40 29.69543 77.32210 19971 ft 383 kts 16°
2026-05-06 01:41 29.72071 77.33203 19970 ft 384 kts 16°
2026-05-06 01:41 29.76890 77.35098 19972 ft 384 kts 16°
2026-05-06 01:41 29.79416 77.36092 19971 ft 384 kts 16°
2026-05-06 01:42 29.81944 77.37088 19972 ft 384 kts 16°
2026-05-06 01:42 29.84477 77.38086 19973 ft 384 kts 16°
2026-05-06 01:42 29.87009 77.39084 19970 ft 384 kts 16°
2026-05-06 01:42 29.89539 77.40083 19971 ft 384 kts 16°
2026-05-06 01:43 29.92039 77.41070 19969 ft 385 kts 16°
2026-05-06 01:43 29.94573 77.42071 19973 ft 385 kts 16°
2026-05-06 01:43 29.97151 77.42852 19970 ft 381 kts
2026-05-06 01:43 29.99782 77.42788 19971 ft 378 kts 348°
2026-05-06 01:44 30.02263 77.41863 19970 ft 375 kts 333°
2026-05-06 01:44 30.04593 77.40511 19972 ft 375 kts 332°
2026-05-06 01:44 30.06925 77.39150 19972 ft 375 kts 332°
2026-05-06 01:44 30.09257 77.37790 19972 ft 375 kts 332°
2026-05-06 01:45 30.11588 77.36432 19975 ft 375 kts 332°
2026-05-06 01:45 30.13921 77.35075 19973 ft 375 kts 332°
2026-05-06 01:45 30.16255 77.33717 19975 ft 375 kts 332°
2026-05-06 01:45 30.18588 77.32358 19973 ft 375 kts 332°
2026-05-06 01:46 30.20916 77.31001 19970 ft 375 kts 332°
2026-05-06 01:46 30.23246 77.29643 19972 ft 375 kts 332°
2026-05-06 01:46 30.25549 77.28300 19973 ft 375 kts 332°
2026-05-06 01:46 30.27889 77.26935 19975 ft 375 kts 332°
2026-05-06 01:47 30.30215 77.25577 19974 ft 375 kts 332°
2026-05-06 01:47 30.32546 77.24216 19977 ft 375 kts 332°
2026-05-06 01:47 30.34871 77.22858 19907 ft 373 kts 332°
2026-05-06 01:47 30.37186 77.21499 19536 ft 371 kts 331°
2026-05-06 01:48 30.39343 77.19881 19041 ft 367 kts 322°
2026-05-06 01:48 30.41198 77.17917 18492 ft 365 kts 313°
2026-05-06 01:48 30.42801 77.15606 17894 ft 362 kts 307°
2026-05-06 01:48 30.44313 77.13277 17156 ft 362 kts 308°
2026-05-06 01:49 30.45844 77.10942 16334 ft 365 kts 308°
2026-05-06 01:49 30.47358 77.08636 15517 ft 360 kts 308°
2026-05-06 01:49 30.48862 77.06344 14733 ft 354 kts 308°
2026-05-06 01:49 30.50343 77.04085 13955 ft 349 kts 308°
2026-05-06 01:50 30.51799 77.01860 13131 ft 344 kts 308°
2026-05-06 01:50 30.53235 76.99664 12297 ft 340 kts 308°
2026-05-06 01:50 30.54654 76.97495 11480 ft 336 kts 308°
2026-05-06 01:50 30.56061 76.95341 10686 ft 333 kts 308°
2026-05-06 01:51 30.57454 76.93206 9907 ft 330 kts 308°
2026-05-06 01:51 30.58831 76.91097 9079 ft 327 kts 308°
2026-05-06 01:51 30.60200 76.88997 8242 ft 324 kts 308°
2026-05-06 01:51 30.61559 76.86913 7443 ft 322 kts 308°
2026-05-06 01:52 30.62907 76.84844 6654 ft 320 kts 308°
2026-05-06 01:52 30.64241 76.82794 5856 ft 317 kts 308°
2026-05-06 01:52 30.65561 76.80769 5280 ft 308 kts 308°
2026-05-06 01:52 30.66813 76.78846 5063 ft 288 kts 308°
2026-05-06 01:53 30.67962 76.77038 4900 ft 270 kts 304°
2026-05-06 01:53 30.68827 76.75171 4523 ft 264 kts 295°
2026-05-06 01:53 30.69573 76.73204 4105 ft 266 kts 295°
2026-05-06 01:53 30.70326 76.71249 3691 ft 264 kts 295°
2026-05-06 01:54 30.71081 76.69299 3297 ft 266 kts 295°
2026-05-06 01:54 30.71835 76.67356 3065 ft 261 kts 295°
2026-05-06 01:54 30.72633 76.65444 3002 ft 263 kts 304°
2026-05-06 01:54 30.73926 76.63973 3003 ft 262 kts 329°
2026-05-06 01:55 30.75592 76.63132 3000 ft 258 kts 339°
2026-05-06 01:55 30.77222 76.62408 3005 ft 243 kts 340°
2026-05-06 01:55 30.78762 76.61717 3007 ft 230 kts 339°
2026-05-06 01:55 30.80203 76.61060 2999 ft 214 kts 338°
2026-05-06 01:56 30.81343 76.60064 3033 ft 200 kts 306°
2026-05-06 01:56 30.81713 76.58651 2998 ft 178 kts 267°
2026-05-06 01:56 30.81225 76.57442 2992 ft 157 kts 221°
2026-05-06 01:56 30.80238 76.57070 3022 ft 155 kts 175°
2026-05-06 01:57 30.79201 76.57341 3034 ft 149 kts 161°
2026-05-06 01:57 30.78255 76.57733 3005 ft 140 kts 158°
2026-05-06 01:57 30.77345 76.58140 2991 ft 140 kts 158°
2026-05-06 01:57 30.76441 76.58565 3005 ft 141 kts 155°
2026-05-06 01:58 30.75589 76.59133 2992 ft 139 kts 141°
2026-05-06 01:58 30.74912 76.59941 3005 ft 140 kts 124°
2026-05-06 01:58 30.74410 76.60904 2998 ft 139 kts 115°
2026-05-06 01:58 30.73993 76.61915 3004 ft 139 kts 112°
2026-05-06 01:59 30.73592 76.62937 3000 ft 139 kts 112°
2026-05-06 01:59 30.73196 76.63946 3002 ft 139 kts 112°
2026-05-06 01:59 30.72796 76.64969 3001 ft 139 kts 112°
2026-05-06 01:59 30.72397 76.65987 2998 ft 139 kts 112°
2026-05-06 02:00 30.71994 76.67016 3001 ft 139 kts 112°
2026-05-06 02:00 30.71590 76.68048 2896 ft 141 kts 112°
2026-05-06 02:00 30.71187 76.69074 2713 ft 138 kts 112°
2026-05-06 02:00 30.70789 76.70090 2549 ft 137 kts 112°
2026-05-06 02:01 30.70395 76.71097 2348 ft 137 kts 112°
2026-05-06 02:01 30.70000 76.72105 2147 ft 136 kts 112°
2026-05-06 02:01 30.69609 76.73102 1967 ft 135 kts 113°
2026-05-06 02:01 30.69222 76.74088 1777 ft 134 kts 113°
2026-05-06 02:02 30.68841 76.75060 1585 ft 133 kts 114°
2026-05-06 02:02 30.68459 76.76033 1390 ft 132 kts 114°
2026-05-06 02:02 30.68076 76.77001 1192 ft 131 kts 114°
2026-05-06 02:02 30.67701 76.77964 1037 ft 127 kts 114°
2026-05-06 02:03 30.67455 76.78607 1033 ft 44 kts 114°
2026-05-06 02:03 30.67347 76.78887 1030 ft 39 kts 114°
2026-05-06 02:03 30.67238 76.79179 1025 ft 40 kts 112°
2026-05-06 02:03 30.67156 76.79320 1025 ft 22 kts 161°
2026-05-06 02:04 30.67061 76.79277 1024 ft 14 kts 217°
2026-05-06 02:04 30.66965 76.79223 1023 ft 14 kts 205°
2026-05-06 02:04 30.66867 76.79164 1025 ft 16 kts 224°
2026-05-06 02:04 30.66878 76.79051 1025 ft 16 kts 292°
2026-05-06 02:05 30.66925 76.78927 1026 ft 18 kts 296°
2026-05-06 02:05 30.67011 76.78821 1028 ft 17 kts 302°
2026-05-06 02:05 30.66988 76.78764 1026 ft 6 kts 196°
2026-05-06 02:05 30.66931 76.78748 1027 ft 0 kts 200°